www.pogodaiklimat.ru

Погода и климат >> Архив погоды >> Саудовская Аравия >> Makkah


АРХИВ ПОГОДЫ в Makkah

Время (UTC), дата Ветер
(напр.,м/с)
 
Видим.   Явления Облачность Т
(С)
Тd
(С)
f
(%)
Тe
(С)
Тes
(С)
Комфортность P
(гПа)
Po
(гПа)
Тmin
(С)
Tmax
(С)
R
(мм)
R24
(мм)
S
(см)
09 14.10 Ю 3 10 км ясно +39.8 +18.0 28 +43 +56 опасность
перегрева
1007.0 980.9
12 14.10 З 1 10 км ясно +42.4 +13.0 18 +42 +53 опасность
перегрева
1004.7 978.7
15 14.10 З 1 10 км ясно +36.6 +15.0 28 +38 +38 очень
душно
1005.9 979.6
18 14.10 штиль 0 10 км ясно +33.0 +20.0 46 +39 +39 очень
душно
1008.2 981.9 +43.4
21 14.10 штиль 0 10 км ясно +32.2 +20.0 49 +39 +39 очень
душно
1007.7 981.7
00 15.10 штиль 0 10 км ясно +31.4 +19.0 48 +37 +37 очень
душно
1006.2 980.2
03 15.10 штиль 0 10 км ясно +27.2 +16.0 50 +30 +30 душно 1007.4 980.9
06 15.10 штиль 0 10 км ясно +30.0 +15.0 40 +32 +40 жарко 1009.2 982.7 +27.0
09 15.10 ЮЗ 1 10 км ясно +41.0 +14.0 20 +41 +60 опасность
перегрева
1007.5 981.5
12 15.10 ЮЗ 2 10 км ясно +42.4 +11.0 16 +41 +50 опасность
перегрева
1005.5 979.5
15 15.10 ЮЗ 2 10 км ясно +36.8 +17.0 31 +39 +39 очень
душно
1006.9 980.5
18 15.10 штиль 0 10 км ясно +33.8 +20.0 44 +40 +40 очень
душно
1008.3 982.1 +42.8
21 15.10 штиль 0 10 км ясно +31.4 +20.0 51 +38 +38 очень
душно
1007.9 981.9
00 16.10 штиль 0 10 км ясно +29.0 +19.0 55 +34 +34 очень
душно
1007.1 980.9
03 16.10 штиль 0 10 км ясно +27.6 +21.0 67 +35 +35 очень
душно
1008.7 982.2
06 16.10 штиль 0 10 км ясно +30.0 +22.0 62 +39 +46 очень
душно
1010.0 983.5 +27.0
09 16.10 СЗ 1 10 км ясно +39.0 +17.0 28 +42 +60 опасность
перегрева
1008.2 982.0
12 16.10 штиль 0 10 км ясно +42.3 +12.0 17 +42 +54 опасность
перегрева
1005.4 979.4
15 16.10 С 1 10 км ясно +35.4 +21.0 43 +42 +42 опасность
перегрева
1006.5 980.1
18 16.10 С 2 10 км ясно +30.6 +22.0 60 +39 +39 очень
душно
1009.1 982.7 +43.0
21 16.10 штиль 0 10 км ясно +28.0 +23.0 74 +37 +37 очень
душно
1008.5 982.3
00 17.10 штиль 0 10 км ясно +27.8 +23.0 75 +37 +37 очень
душно
1007.4 981.2
03 17.10 штиль 0 10 км ясно +26.8 +21.0 71 +34 +34 очень
душно
1008.2 981.6
06 17.10 С 2 10 км ясно +29.3 +21.0 61 +37 +42 очень
душно
1009.6 982.9 +26.0
09 17.10 С 3 10 км ясно +37.0 +19.0 35 +42 +56 опасность
перегрева
1007.9 981.5
12 17.10 СЗ 1 10 км ясно +39.0 +17.0 28 +42 +52 опасность
перегрева
1005.5 979.2
15 17.10 СЗ 2 10 км ясно +33.0 +19.0 44 +38 +38 очень
душно
1006.9 980.3
18 17.10 штиль 0 10 км ясно +29.0 +19.0 55 +34 +34 очень
душно
1008.5 982.0 +40.0
21 17.10 штиль 0 10 км ясно +28.0 +19.0 58 +33 +33 очень
душно
1007.8 981.5
00 18.10 С 1 10 км ясно +27.2 +17.0 54 +31 +31 душно 1007.2 980.8
03 18.10 СВ 1 10 км ясно +26.4 +13.0 43 +28 +28 жарко 1007.7 981.0
06 18.10 штиль 0 10 км ясно +29.2 +17.0 48 +33 +41 очень
душно
1008.7 982.0 +25.8
09 18.10 штиль 0 10 км ясно +39.0 +17.0 28 +42 +62 опасность
перегрева
1006.8 980.5
12 18.10 З 2 10 км ясно +40.9 +12.0 18 +40 +50 очень
жарко
1004.8 978.6
15 18.10 СЗ 2 10 км ясно +35.3 +17.0 34 +38 +38 очень
душно
1006.4 979.9
18 18.10 СЗ 2 10 км ясно +31.4 +19.0 48 +37 +37 очень
душно
1008.8 982.4 +42.0
21 18.10 штиль 0 10 км ясно +29.6 +20.0 56 +36 +36 очень
душно
1008.0 981.9
00 19.10 штиль 0 10 км ясно +28.4 +19.0 57 +34 +34 очень
душно
1007.2 981.0
03 19.10 штиль 0 10 км ясно +26.4 +18.0 60 +31 +31 душно 1008.0 981.5
06 19.10 штиль 0 10 км ясно +31.4 +19.0 48 +37 +44 очень
душно
1009.3 982.8 +26.0
09 19.10 ЮЗ 2 10 км ясно +39.0 +14.0 23 +40 +56 опасность
солнечного
удара
1008.1 981.9
12 19.10 Ю 2 10 км ясно +41.2 +12.0 18 +41 +49 опасность
перегрева
1006.6 980.4
15 19.10 Ю 2 10 км ясно +36.2 +17.0 32 +39 +39 очень
душно
1007.8 981.3
18 19.10 штиль 0 10 км ясно +33.2 +17.0 38 +36 +36 очень
душно
1009.4 983.1 +42.8
21 19.10 штиль 0 10 км ясно +31.0 +19.0 49 +36 +36 очень
душно
1008.9 982.8
00 20.10 штиль 0 10 км ясно +29.9 +17.0 46 +34 +34 очень
душно
1007.6 981.5
03 20.10 штиль 0 10 км ясно +27.6 +17.0 52 +31 +31 душно 1008.4 981.9
06 20.10 штиль 0 10 км ясно +31.4 +19.0 48 +37 +44 очень
душно
1009.9 983.4 +26.6
09 20.10 ЮЗ 2 10 км ясно +39.0 +15.0 24 +40 +55 опасность
солнечного
удара
1009.2 983.0
12 20.10 Ю 3 10 км ясно +38.8 +18.0 30 +42 +49 опасность
перегрева
1008.1 981.8
15 20.10 Ю 1 10 км ясно +34.4 +21.0 46 +42 +42 опасность
перегрева
1009.4 982.8
18 20.10 штиль 0 10 км ясно +31.8 +21.0 53 +39 +39 очень
душно
1010.8 984.4 +41.0
21 20.10 штиль 0 10 км ясно +30.8 +19.0 49 +36 +36 очень
душно
1010.0 983.8
00 21.10 штиль 0 10 км ясно +29.4 +19.0 54 +35 +35 очень
душно
1008.6 982.3
03 21.10 штиль 0 10 км ясно +27.8 +19.0 59 +33 +33 очень
душно
1009.2 982.6
06 21.10 штиль 0 10 км ясно +31.0 +20.0 52 +37 +45 очень
душно
1010.3 983.8 +26.0

 

Местоположение метеостанции Makkah (Саудовская Аравия): широта 21.43 долгота 39.77 высота над уровнем моря 240 м.

В архиве по умолчанию представлена погода в Makkah за последнюю неделю. Архивные данные за месяц целиком и за предыдущие месяцы, начиная с января 2011 года, Вы можете получить, выбрав интересующий диапазон дат из раскрывающегося списка и нажав кнопку "Ввод!".

Внимание! Время в таблицах - всемирное. Для получения местного времени необходимо прибавить поправку, которая в Makkah равна 3 ч.

Смотрите также архив погоды в соседних городах и на ближайших метеорологических станциях:

Погода в Mina (Саудовская Аравия) (10 км)
Погода в Arafat (Саудовская Аравия) (24 км)
Погода в Jeddah King Abdul Aziz (Саудовская Аравия) (68 км)
Погода в Al Taif (Саудовская Аравия) (81 км)
Погода в Al Baha (Саудовская Аравия) (232 км)
Погода в Port Sudan (Судан) (336 км)
Погода в Bisha (Саудовская Аравия) (338 км)
Погода в Madinah (Саудовская Аравия) (347 км)
Погода в Yanbu (Саудовская Аравия) (347 км)
Погода в Abha (Саудовская Аравия) (466 км)

Пояснения к столбцам:

Ветер - указаны скорость ветра в м/с - средняя за 10 мин, порывы в срок и между сроками (в фигурных скобках) и направление, откуда дует ветер: С - северный, СВ - северо-восточный, В - восточный, ЮВ - юго-восточный, Ю - южный, ЮЗ - юго-западный, З - западный, СЗ - северо-западный.
Видимость - горизонтальная дальность видимости в метрах или километрах. При видимости от 1 до 10 км при отсутствии осадков обычно наблюдается дымка, при ухудшении видимости до 1 км и менее - туман. В сухую погоду видимость может ухудшаться дымом, пылью или мглою.
Явления - указаны атмосферные явления, наблюдавшиеся в срок или в последний час перед сроком; фигурными скобками обозначены явления, наблюдавшиеся между сроками (за 1-3 часа до срока); квадратными скобками обозначены град или гололедные отложения с указанием их диаметра в мм.
Облачность - указаны через наклонную черту общая и нижняя облачность в баллах и высота нижней границы облаков в метрах; квадратными скобками обозначены формы облаков: Ci - перистые, Cs - перисто-слоистые, Cc - перисто-кучевые, Ac - высококучевые, As - высокослоистые, Sc - слоисто-кучевые, Ns - слоисто-дождевые, Cu - кучевые, Cb - кучево-дождевые. Подробнее классификацию облаков см. в Атласе облаков (PDF).
T - Температура воздуха - температура, измеренная на высоте 2 м над землей.
Td - Температура точки росы - температура, при понижении до которой содержащийся в воздухе водяной пар достигнет насыщения.
f - Относительная влажность воздуха - влажноcть воздуха, измеренная на высоте 2 м над землей.
Te - Эффективная температура - температура, которую ощущает одетый по сезону человек в тени. Характеристика душности погоды. При расчете учитывается влияние влажности воздуха и скорости ветра на теплоощущения человека.
Tes - Эффективная температура на солнце - температура, которую ощущает человек, с поправкой на солнечный нагрев. Характеристика знойности погоды. Зависит от высоты солнца над горизонтом, облачности и скорости ветра. Ночью, в пасмурную погоду, а также при ветре 12 м/с и более поправка равна нулю.
P - Атмосферное давление - приведенное к уровню моря атмосферное давление.
Po - Атмосферное давление - измеренное на уровне метеостанции атмосферное давление.
Tmin - Минимальная температура - минимум температуры воздуха на высоте 2 м над землей.
Tmax - Максимальная температура - максимум температуры воздуха на высоте 2 м над землей.
R - Количество осадков - Количество выпавших осадков за период времени, мм. При наведении курсора мыши на число - период времени, за который выпало указанное количество осадков.
R24 - Количество осадков - Количество выпавших осадков за 24 часа, мм.
S - Снежный покров - Высота снежного покрова, см. При наведении курсора мыши на число - состояние снежного покрова и степень покрытия местности в баллах.